STARLINK-2471, 48129

Orbit data source: Space-Track

STARLINK-2471, 48129 is a payload satellite owned by SpaceX/Seattle (US) in LEO that was launched on Wed, 07 Apr 2021 UTC via an FALCON 9 launch vehicle from the Air Force Eastern Test Range (AFETR). Payload-class satellites include a variety of spacecraft equipped with specific instruments for various scientific and technological missions. These include communications satellites like Starlink; space stations such as the ISS; scientific satellites like the Hubble; Earth observation satellites from companies like Planet Labs, Umbra, and HawkEye 360; GPS; miniature CubeSats for education and research; and military/defense satellites.

Loading next visibility...
Identifier
48129, 2021-027AP
Orbit
LEO
Country
Flag of USUS
Related business
Manufacturer
SpaceX/Seattle
Mission
Operational Commercial Communications
Bus & Motor
STARLINK, Unknown motor
Mass
260 kg wet, ~248 kg dry
Launch date (UTC)
2021-04-07 (5 years ago)
Launch vehicle
FALCON 9
Launch site
Air Force Eastern Test Range (AFETR)
Object type
Payload
Rocket body
Debris
Shape & HBR
Box + 1 Pan, 10.1 m
Radar Cross Section
13.562 m², Large (>1 m²)

Expand to show TLE details & history
Last TLE update: 2 days ago

TLE from 2 days ago
0 STARLINK-2471
1 48129U 21027AP  26171.38719826  .00001875  00000-0  72147-4 0  9993
2 48129  53.1605  47.7910 0001791  96.5003 263.6203 15.31712894288242
Epoch: 2026-06-20T09:17Z
TLE epoch observation values (Epoch: 2026-06-20T09:17:33.929Z)
Latitude
0.00002°
Longitude
-0.20291°
Altitude
471.738 km
Speed
7.631 km/s
True Right ascension
03h 11m 09s
True Declination
0° 00' 00"
Sunlit
Object was in daylight at epoch
Visualization orbit readout
Latitude
Unknown
Longitude
Unknown
Altitude
Unknown
Speed
Unknown
Apparent Right ascension
Unknown
Apparent Declination
Unknown
Sunlit
N/A
Visualization observer readout
Local Sidereal Time
21:25:11
Azimuth
Unknown
Elevation
Unknown
Doppler factor
Unknown
Orbital elements
Apogee altitude
472.185 km
Perigee altitude
469.731 km
Semi-major axis
6,849.095 km
Eccentricity
0.00018
Inclination
53.1605°
RAAN
47.791°
Arg. of periapsis
96.5003°
True anomaly
263.5999°
Mean anomaly
263.6203°
Eccentric anomaly
263.6101°
Mean motion
3.82907 °/min
Orbital period
94.02 mins
BSTAR
0.000072147
Loading maneuver chart data...
Computing Atmospheric mass density...

Documentation

Showing up to 5 results
|